Lapse_Rate
8.7 9.2 9.2 9.6 9.6 9.6 9.6 9.6 9.7 9.6 9.5 9.7 9.6 8.3 9.1 9.4 9.2 9.2 8.7 8.2 8.4 7.7 7.7 7.9 7.6 7.9 7.5 7.6 7.4 7.2 7.2 7.1 7.0 6.9 6.6 6.5 6.5 6.5 6.5 6.5 6.5 6.5 6.4 6.4
8.1 8.4 8.5 8.7 9.5 9.6 9.6 9.6 9.7 9.6 9.2 9.1 9.2 9.5 9.4 9.1 9.3 9.2 8.5 7.9 8.3 7.6 7.6 8.1 8.0 8.2 8.0 7.8 7.7 7.4 7.4 7.3 7.1 7.0 6.8 6.7 6.8 7.0 6.9 6.6 6.6 6.5 6.4 6.3
7.7 8.4 8.5 8.4 8.6 9.2 9.3 9.4 9.4 9.5 9.5 9.6 9.4 9.3 9.6 9.2 8.8 8.6 8.3 8.4 8.1 7.8 7.6 8.5 8.5 8.4 8.3 8.1 7.9 7.7 7.4 7.4 7.3 7.0 7.0 6.9 6.7 6.8 6.8 7.0 6.6 6.6 6.6 6.3
7.8 8.5 8.6 8.5 9.1 9.1 8.9 9.1 9.1 9.1 9.3 9.3 9.2 9.2 8.9 8.5 8.5 8.6 8.4 8.8 8.0 8.1 8.2 8.7 8.9 8.7 8.5 8.2 8.1 8.0 7.8 7.7 7.7 7.5 7.5 7.4 7.2 7.0 6.8 6.7 6.8 6.9 6.7 6.6
7.9 8.0 7.8 8.5 8.7 9.1 9.0 8.5 8.9 9.2 9.1 8.8 8.8 8.8 8.3 7.8 8.0 8.3 8.4 8.7 8.7 8.6 8.7 8.7 8.9 8.9 8.8 8.5 8.4 8.3 8.1 8.0 8.0 7.7 7.5 7.4 7.3 7.2 7.1 6.9 6.8 6.9 6.8 6.8
8.1 7.9 8.1 8.3 9.0 8.6 8.3 7.5 8.3 8.5 8.5 8.4 8.3 8.7 7.3 6.9 7.1 7.5 7.8 8.6 8.7 8.7 9.0 8.9 8.9 8.8 8.9 8.8 8.7 8.4 8.4 8.3 8.1 7.9 7.6 7.4 7.3 7.1 6.9 6.9 6.8 6.6 6.4 6.6
8.4 8.2 7.8 8.4 8.7 8.8 7.8 7.3 7.9 7.6 7.4 7.5 7.6 7.7 6.5 6.9 6.8 7.2 7.0 7.9 8.5 8.3 8.9 9.1 8.9 8.8 8.8 8.7 8.8 8.7 8.5 8.4 8.1 7.8 7.7 7.6 7.4 7.3 7.0 6.7 6.8 6.5 6.6 6.3
7.4 8.6 8.2 8.2 8.4 8.0 7.9 8.1 7.8 7.3 7.0 7.1 7.1 8.0 8.4 7.8 7.5 7.5 6.7 7.1 8.0 7.7 8.8 8.9 8.9 8.8 8.7 8.9 8.6 8.4 8.3 8.0 7.9 7.8 7.6 7.5 7.3 6.9 6.5 6.3 6.2 6.1 6.1 6.2
8.2 8.3 8.2 7.7 7.4 7.4 7.4 7.6 7.1 6.6 6.4 6.5 6.8 7.4 7.8 7.5 7.1 6.5 6.9 6.9 7.3 7.3 8.2 8.9 8.7 8.8 8.8 8.0 8.4 8.3 8.2 8.1 7.9 7.7 7.6 7.3 6.9 6.3 6.2 6.1 6.0 5.8 6.0 5.9
7.8 7.8 7.6 7.3 7.0 6.9 7.4 7.2 7.2 6.9 6.8 6.2 6.3 7.1 7.5 7.1 6.3 6.2 6.8 6.7 6.9 7.2 7.8 8.5 8.7 8.5 8.5 8.2 8.3 8.2 8.2 8.1 7.9 7.7 7.6 7.4 7.0 5.9 5.5 5.4 5.6 5.5 5.6 5.7
7.3 7.5 7.8 8.0 7.6 7.2 7.2 7.3 7.0 7.1 6.7 6.5 7.1 7.2 7.2 6.8 6.3 6.8 6.8 6.7 7.1 7.5 7.8 8.0 8.3 8.3 8.4 8.2 8.1 8.2 8.2 8.0 7.8 7.6 7.7 7.3 6.8 5.5 5.5 5.0 5.2 5.0 5.1 5.6
7.4 7.4 7.0 6.8 7.6 6.9 6.4 6.7 7.1 6.7 5.9 7.5 6.9 6.8 6.4 6.7 6.0 6.6 6.9 6.9 6.7 7.3 7.7 7.9 8.0 8.2 8.1 8.0 8.1 8.1 8.1 7.9 7.7 7.6 7.5 7.1 6.6 5.9 5.5 5.2 4.6 4.4 4.8 5.7
6.4 6.7 6.8 6.9 7.0 7.4 7.2 6.8 6.8 6.4 6.4 6.4 6.6 6.4 6.3 6.2 6.1 5.9 7.0 6.9 7.1 7.2 7.4 7.6 7.9 7.8 7.8 7.9 7.9 7.9 8.0 7.8 7.6 7.4 7.0 6.4 5.9 5.9 6.3 6.4 5.8 5.7 4.9 5.6
6.4 6.4 6.4 6.7 6.8 6.9 6.9 6.9 6.9 6.6 6.5 6.5 6.4 6.4 6.3 6.2 6.3 6.2 6.6 7.1 7.0 6.9 7.2 7.5 7.4 7.5 7.5 7.6 7.6 7.5 7.7 7.5 7.3 7.0 6.4 6.0 5.6 5.6 5.6 5.6 5.4 5.4 5.4 5.6
6.4 6.5 6.3 6.3 6.4 6.6 6.5 6.5 6.4 6.4 6.5 6.4 6.4 6.2 6.3 6.2 6.3 6.2 6.3 6.9 7.3 6.9 7.1 7.3 7.1 7.2 7.2 7.4 7.4 7.2 7.4 7.3 6.9 6.6 6.3 5.9 5.5 5.6 5.5 5.4 5.5 5.7 5.7 5.8
6.3 6.2 6.5 6.5 6.4 6.3 6.1 6.2 6.2 5.8 6.2 6.3 6.3 6.2 6.2 6.3 6.3 6.3 6.5 6.8 6.3 7.3 7.2 7.2 7.1 7.1 7.3 7.6 7.4 7.1 7.1 7.0 7.0 6.7 6.1 5.9 5.8 5.6 5.5 5.5 5.6 5.8 5.8 6.0
6.2 6.3 6.1 6.3 6.1 6.0 6.4 6.6 6.2 5.7 6.1 6.1 6.2 6.4 6.4 6.3 6.5 6.3 6.4 6.3 6.9 7.1 7.3 7.4 7.5 7.4 7.2 7.0 6.3 6.5 6.6 6.8 6.7 6.5 6.2 5.8 5.7 5.5 5.6 5.5 5.6 5.8 5.9 6.0
5.6 5.9 6.1 6.1 6.3 6.3 6.5 6.5 6.5 6.0 5.8 6.5 6.3 6.3 6.4 6.3 6.4 6.4 6.3 6.8 7.1 7.4 7.4 7.0 6.8 7.3 7.0 7.1 6.7 6.3 6.3 6.7 6.4 6.4 6.3 5.8 5.6 5.5 5.6 5.4 5.5 5.6 5.8 5.8
5.8 6.0 5.9 6.2 6.5 6.4 6.5 6.5 6.6 6.6 6.5 6.3 6.5 6.5 6.5 6.4 6.7 6.3 6.2 7.0 7.4 7.1 7.1 7.2 7.4 7.2 6.9 7.0 6.5 6.6 6.3 6.6 6.6 6.3 6.4 5.9 5.7 5.7 5.7 5.6 5.6 5.5 5.5 6.1
5.7 6.0 6.1 6.4 6.3 6.3 6.3 6.5 6.5 6.7 6.7 6.5 6.3 6.3 6.3 6.4 6.4 6.2 6.6 7.2 7.1 7.1 7.1 7.2 7.2 6.8 6.7 7.0 6.7 6.2 5.9 6.1 6.6 6.4 6.2 6.1 5.8 5.7 5.7 5.6 5.7 5.7 5.7 5.7
5.7 6.1 6.2 6.2 6.3 6.3 6.3 6.3 6.3 6.4 6.6 6.4 6.5 6.7 6.6 6.2 6.0 6.6 6.8 6.8 6.8 6.7 6.9 6.7 6.7 6.4 6.5 6.2 6.0 6.1 6.2 5.7 6.0 6.2 6.3 6.2 5.7 5.6 5.6 5.5 5.6 5.5 5.5 5.6
5.8 5.8 5.9 5.9 6.1 6.2 6.1 6.2 6.2 6.2 6.2 6.3 6.5 6.6 6.4 6.5 6.3 6.7 6.7 6.8 6.3 5.4 6.5 6.1 6.1 6.5 6.7 6.1 6.2 6.3 5.9 5.7 5.9 5.7 6.2 5.7 5.7 5.1 5.2 5.6 5.2 5.2 5.6 5.4
5.8 5.9 5.9 6.0 6.0 5.9 5.9 6.0 6.0 6.1 6.2 6.3 6.2 6.4 6.4 6.4 6.5 6.7 6.7 6.3 6.3 6.3 5.9 6.5 6.3 6.3 6.1 5.9 5.9 6.1 5.9 5.9 5.9 5.4 5.3 5.4 5.3 5.3 5.2 5.1 5.5 5.0 5.0 5.4
5.9 5.8 5.7 5.7 5.8 5.4 5.7 5.7 5.6 6.0 6.1 6.2 6.3 6.2 6.0 6.1 6.2 6.1 6.3 6.3 6.0 6.2 6.2 6.4 6.4 6.3 6.0 5.9 6.2 6.3 6.1 6.5 6.1 6.3 5.9 5.8 5.6 5.5 5.8 5.4 5.5 5.3 5.3 5.4
5.8 5.7 5.7 5.7 5.7 5.6 5.7 5.9 5.9 6.0 6.1 6.0 6.1 5.9 5.9 5.9 5.9 6.1 6.3 6.4 6.4 5.8 6.0 5.9 6.0 6.2 6.5 6.5 6.7 6.7 6.9 6.7 6.4 6.3 6.0 5.9 5.8 5.6 5.6 5.5 5.5 5.9 5.3 5.5
5.2 5.7 5.4 5.6 5.7 5.6 5.8 6.0 6.2 6.1 5.9 5.6 5.8 5.9 5.6 5.6 5.8 5.9 5.7 5.4 5.3 5.9 5.8 5.8 6.0 6.3 6.6 6.7 6.9 6.7 6.3 6.2 6.2 6.2 6.2 6.0 5.8 5.6 5.6 5.4 5.5 5.6 5.5 5.6
5.5 5.5 5.5 5.3 5.6 5.6 5.3 5.2 5.2 5.9 5.8 5.8 5.5 5.7 5.8 5.3 5.3 5.4 5.3 5.1 4.9 5.6 5.8 6.0 5.9 5.6 6.1 6.1 6.0 6.1 5.9 5.8 6.0 5.9 5.7 5.6 5.7 5.6 5.4 5.5 6.3 5.2 5.1 5.5
Wind_Speed
23 21 21 20 17 13 13 15 14 15 15 12 10 10 10 9 8 4 7 5 6 8 9 10 12 13 12 15 15 15 15 16 16 14 13 11 11 10 12 10 11 11 11 10
21 21 23 24 23 20 16 16 16 17 19 17 16 12 10 10 7 2 7 7 6 9 11 12 12 13 14 12 14 14 13 15 13 12 12 12 11 12 11 11 10 10 12 11
20 20 22 23 22 21 20 21 19 19 18 16 14 12 9 12 13 11 6 8 7 9 11 13 12 12 12 11 12 11 11 11 11 12 13 12 12 11 12 12 11 10 10 9
13 15 22 14 16 17 20 18 16 17 14 9 11 10 12 12 10 8 8 9 3 5 6 11 14 12 11 11 8 10 10 10 11 13 13 13 12 12 11 10 10 9 8 9
13 16 23 21 15 14 15 16 14 15 13 7 13 7 15 15 10 7 5 6 8 4 5 6 11 10 12 10 10 9 11 10 10 10 11 12 12 11 10 10 8 6 5 4
12 18 24 14 16 12 14 13 19 12 6 7 7 3 7 11 11 10 10 2 7 7 7 6 6 8 11 10 10 10 8 8 8 8 9 10 11 11 6 6 8 5 4 3
14 17 20 15 17 18 6 12 9 8 10 7 4 7 8 10 11 12 11 7 5 7 5 6 6 8 9 9 8 4 3 4 5 3 3 7 8 4 6 7 5 5 3 4
16 13 20 16 8 4 10 1 3 2 2 3 5 7 9 11 11 13 12 8 4 6 6 7 6 8 9 10 8 7 8 9 10 10 8 7 8 4 4 6 5 4 3 4
8 9 13 13 12 10 17 7 3 3 4 1 1 4 8 9 11 11 15 8 4 8 8 5 2 7 11 10 9 8 9 10 10 9 7 6 4 7 4 4 3 5 5 4
11 11 9 12 10 9 11 10 17 5 11 3 2 4 5 7 10 9 11 13 6 10 10 7 6 5 10 11 10 9 10 10 9 9 8 7 5 4 4 4 3 3 1 3
15 15 13 16 12 5 7 9 11 16 18 8 7 7 9 8 5 8 10 9 5 4 5 6 9 9 12 11 11 10 10 10 10 9 9 7 5 7 5 3 3 3 4 5
12 13 11 10 10 8 11 11 9 9 24 12 11 10 9 11 7 7 8 12 10 7 6 5 8 10 11 12 12 13 13 10 9 9 9 8 7 6 11 9 8 8 5 5
14 15 18 18 17 16 15 16 12 15 15 14 14 14 13 12 11 7 7 11 11 8 8 9 7 10 12 12 11 11 10 10 8 9 8 8 7 7 7 4 6 6 2 1
19 17 18 20 16 16 16 17 18 17 18 17 16 15 15 12 13 11 10 11 11 6 9 11 10 12 12 12 12 10 9 11 8 7 7 7 7 7 6 6 5 3 2 4
12 16 18 12 13 11 12 17 17 17 17 16 14 15 15 12 16 12 9 10 9 8 10 11 12 12 13 10 9 9 8 8 7 6 7 8 7 8 7 7 6 6 5 3
18 18 20 18 15 13 16 13 8 20 16 15 14 15 14 16 16 12 10 11 12 9 11 12 11 9 12 10 9 9 7 10 10 8 7 8 8 9 9 9 9 8 7 8
17 19 19 21 19 20 17 17 11 13 19 16 13 14 14 18 11 12 9 13 7 8 10 11 12 12 9 9 6 5 6 8 10 8 9 9 8 8 8 7 7 6 7 4
17 20 21 20 15 19 18 19 18 13 15 15 13 10 5 10 7 14 8 7 7 8 8 11 16 13 12 10 12 11 8 8 9 8 8 8 8 8 7 7 7 6 4 4
16 19 19 20 19 17 17 16 17 18 15 14 10 13 6 21 17 25 11 11 10 12 11 13 22 19 15 17 11 10 9 10 10 9 8 9 7 8 8 7 7 6 6 8
18 18 18 19 19 16 16 16 17 15 16 16 14 13 12 9 11 10 9 10 10 10 13 16 21 17 15 16 16 8 10 12 11 10 8 9 9 8 7 8 8 7 6 6
16 14 15 14 12 13 13 13 12 13 14 14 14 13 12 7 13 9 6 6 9 10 14 17 15 12 11 11 8 7 9 6 11 10 9 9 9 9 9 8 8 6 5 6
13 13 14 15 13 11 11 9 11 13 13 13 14 14 11 12 11 7 7 10 3 8 9 10 10 12 10 12 9 10 10 9 9 10 9 7 5 7 6 6 4 5 6 6
10 9 9 9 8 7 10 8 9 11 11 11 10 10 9 8 6 6 7 11 8 8 7 7 9 13 9 9 10 10 11 10 8 8 7 6 5 4 4 4 5 4 5 6
9 9 10 10 6 6 9 10 12 9 7 5 5 6 5 5 4 3 2 8 9 9 7 4 10 14 11 8 8 6 6 4 4 3 4 4 5 3 3 5 5 7 5 5
11 8 10 10 10 8 8 11 10 8 6 5 3 1 2 4 4 6 4 6 9 5 4 4 14 15 7 6 4 5 5 2 2 4 5 3 4 6 7 8 8 9 8 6
12 8 8 9 7 7 11 11 8 7 5 7 9 9 7 5 3 2 1 4 4 5 2 5 7 7 5 3 4 5 4 4 3 4 6 5 6 7 9 8 8 7 8 8
9 11 9 9 9 9 9 12 14 12 11 11 11 10 11 12 8 3 7 8 8 6 1 6 7 8 9 6 4 1 1 3 4 3 3 4 6 7 9 6 6 9 7 4
Wind_Direction
276 289 293 291 274 264 241 260 267 293 313 307 358 345 345 344 36 201 206 174 209 191 169 165 164 175 179 180 182 187 186 189 196 195 199 199 203 198 198 205 205 211 218 229
268 272 273 274 276 276 269 268 273 269 275 287 302 314 316 299 291 306 17 143 189 184 168 175 173 178 182 179 189 187 186 194 185 188 195 200 199 203 194 203 207 204 216 221
257 256 258 256 263 276 280 280 280 271 278 284 279 292 299 47 42 32 28 333 165 190 182 179 188 177 185 187 184 187 188 182 182 189 198 202 202 201 204 200 205 211 221 222
276 281 259 268 283 292 290 287 288 288 291 294 306 304 22 68 61 39 355 344 301 181 196 177 182 186 186 191 189 187 191 185 187 194 198 200 204 204 198 201 204 207 222 228
262 260 272 266 267 279 297 315 301 301 270 318 313 296 48 31 17 343 355 327 309 225 191 168 176 178 177 186 194 191 195 194 196 195 194 200 203 202 203 202 203 201 209 201
247 258 262 275 284 319 328 284 296 340 345 305 359 58 19 2 352 343 322 341 312 259 192 163 162 166 169 182 184 195 193 195 193 191 209 201 198 197 187 181 165 147 110 177
244 244 257 275 277 291 177 264 347 14 24 53 22 19 346 351 344 330 323 326 260 254 183 161 184 170 171 173 176 131 122 178 182 198 191 103 99 89 128 108 116 111 167 148
257 265 270 20 338 356 351 314 189 83 46 36 6 351 348 352 338 328 321 310 249 240 159 156 167 164 164 111 102 105 105 102 100 96 91 90 94 87 92 121 131 136 163 219
261 278 322 302 301 340 2 314 327 249 139 187 200 358 354 333 321 320 327 308 236 254 131 148 144 166 131 138 132 131 123 116 103 93 94 98 122 133 135 147 155 186 202 211
309 299 303 334 331 349 315 331 338 19 336 242 307 310 302 300 317 323 313 317 249 241 142 170 166 188 124 145 147 146 136 129 123 115 110 99 74 16 34 355 287 109 93 75
280 272 260 271 272 258 301 16 348 340 299 284 280 273 293 298 295 303 302 298 278 152 156 180 168 172 145 153 157 152 140 139 136 134 135 118 112 114 104 61 3 44 42 48
285 324 317 305 298 265 219 201 190 263 276 287 288 285 276 285 272 277 291 299 305 162 166 219 142 144 156 165 162 151 148 152 152 149 152 139 130 97 42 102 101 68 72 69
310 304 297 300 289 281 277 287 254 250 265 276 266 266 265 265 266 255 255 278 283 240 182 190 163 164 160 170 155 155 151 149 154 163 161 156 157 156 152 122 118 113 61 20
298 297 287 280 282 277 288 292 277 270 262 258 265 269 270 247 269 251 246 246 266 210 204 198 189 172 170 178 160 166 170 144 172 171 165 164 167 158 151 149 155 157 265 239
308 315 312 313 276 262 270 270 269 271 272 252 252 254 245 252 254 251 264 268 230 248 197 204 197 186 167 169 152 176 157 163 192 176 164 169 168 164 165 173 176 165 174 205
308 300 298 287 288 296 274 277 314 296 270 263 254 245 248 249 246 227 239 264 231 227 197 186 197 178 152 141 163 182 175 190 208 170 174 180 183 188 186 196 194 174 183 206
294 283 278 284 293 292 294 288 271 252 295 267 239 245 245 241 248 220 210 255 246 243 227 180 178 154 144 139 163 188 192 190 217 185 173 194 195 202 199 186 197 195 204 132
283 279 274 274 270 273 271 280 284 263 259 298 293 265 316 315 316 298 243 220 225 234 227 197 162 158 167 154 166 220 198 180 208 207 174 199 196 201 191 197 201 206 150 144
279 277 273 275 264 261 256 266 274 274 278 267 266 277 215 232 172 232 255 216 208 208 203 180 147 159 172 165 203 231 197 182 196 217 187 189 201 206 201 198 211 217 198 153
278 275 270 268 264 261 265 264 262 266 263 264 257 256 257 257 268 232 229 224 220 208 186 165 163 171 185 183 185 210 209 192 189 215 200 191 198 214 217 206 207 205 209 178
289 289 291 284 270 264 257 257 256 257 255 258 261 256 262 240 265 253 217 218 232 202 191 167 168 170 179 165 173 209 255 215 181 203 211 204 199 206 214 217 201 225 231 199
296 297 295 294 292 290 287 267 250 251 250 246 248 243 232 244 241 244 209 213 176 194 171 161 177 169 162 148 183 199 227 252 190 191 209 190 212 196 212 199 239 217 207 245
312 306 294 285 293 317 311 300 288 268 252 246 244 240 238 237 235 216 216 173 138 243 213 152 175 177 169 176 192 197 211 242 214 194 181 184 185 169 197 231 216 251 211 204
341 16 23 11 30 17 19 1 330 292 260 260 255 240 225 230 207 185 108 157 145 167 200 104 151 163 170 180 192 194 211 303 187 221 232 240 223 217 242 233 253 246 241 199
8 8 18 23 20 4 342 351 322 316 286 230 275 1 240 76 131 134 109 159 146 197 133 166 175 168 170 186 176 193 218 192 172 206 221 226 214 222 205 217 219 230 251 234
15 9 16 25 8 5 15 9 360 20 55 69 45 27 1 130 84 91 99 214 139 111 48 117 139 160 160 139 158 194 209 234 239 228 230 231 239 239 251 251 259 218 237 249
17 17 22 26 26 23 25 28 30 31 44 58 54 36 41 55 50 16 7 34 27 42 108 156 146 74 49 72 0 321 232 233 215 239 249 249 247 258 260 293 338 319 261 303